Location: Newark
(46.6333°N, 8.8333°E)
Time: 20:29:31
(UTC+00:00)

ISS - Visible Passes

Search period start: 19 July 2019 00:00
Search period end: 29 July 2019 00:00
Orbit: 409 x 418 km, 51.6° (Epoch: 20 July)

Date Brightness Start Highest point End Pass type
(mag) Time Alt. Az. Time Alt. Az. Time Alt. Az.
19 Jul -2.5 00:17:50 10° WNW 00:21:02 42° NNE 00:24:13 10° E visible
19 Jul -3.7 01:54:34 10° WNW 01:57:48 52° SSW 02:01:02 10° SE visible
19 Jul -3.8 20:14:18 10° SW 20:17:37 65° SSE 20:20:56 10° ENE visible
19 Jul -2.3 21:51:18 10° W 21:54:28 39° N 21:57:37 10° ENE visible
19 Jul -2.2 23:28:30 10° WNW 23:31:38 36° N 23:34:44 10° ENE visible
20 Jul -4.0 01:05:13 10° WNW 01:08:32 82° SSW 01:09:06 58° SE visible
20 Jul -1.8 02:45:52 13° SSW 02:45:52 13° SSW 02:46:37 10° SSW visible
20 Jul -2.7 21:01:48 10° W 21:05:03 47° NNW 21:08:18 10° ENE visible
20 Jul -2.0 22:39:06 10° WNW 22:42:11 33° N 22:45:15 10° ENE visible
21 Jul -2.5 00:15:54 10° WNW 00:18:00 35° NW 00:18:00 35° NW visible
21 Jul -3.3 20:12:20 10° WSW 20:15:40 64° NNW 20:18:59 10° ENE visible
21 Jul -2.0 21:49:39 10° WNW 21:52:43 33° N 21:55:48 10° ENE visible
21 Jul -2.8 23:26:35 10° WNW 23:29:24 46° NNW 23:29:24 46° NNW visible
22 Jul -2.1 21:00:08 10° WNW 21:03:15 35° N 21:06:22 10° ENE visible
22 Jul -2.5 22:37:15 10° WNW 22:40:25 40° NNE 22:41:11 34° NE visible
23 Jul -0.9 00:13:56 10° WNW 00:13:58 10° WNW 00:13:58 10° WNW visible
23 Jul -2.4 20:10:36 10° W 20:13:48 41° NNW 20:16:59 10° ENE visible
23 Jul -2.2 21:47:50 10° WNW 21:50:58 35° N 21:53:06 17° ENE visible
23 Jul -1.7 23:24:34 10° WNW 23:25:55 22° WNW 23:25:55 22° WNW visible
24 Jul -2.1 20:58:23 10° WNW 21:01:28 33° N 21:04:33 10° ENE visible
24 Jul -3.0 22:35:13 10° WNW 22:37:56 50° NNW 22:37:56 50° NNW visible
25 Jul -2.1 20:08:52 10° WNW 20:11:58 33° N 20:15:03 10° ENE visible
25 Jul -2.9 21:45:51 10° WNW 21:49:06 47° NNE 21:50:01 35° ENE visible
25 Jul -0.9 23:22:36 10° WNW 23:22:49 11° WNW 23:22:49 11° WNW visible
26 Jul -2.5 20:56:27 10° WNW 20:59:38 38° NNE 21:02:07 14° ENE visible
26 Jul -2.1 22:33:08 10° WNW 22:34:56 28° WNW 22:34:56 28° WNW visible
27 Jul -2.2 20:07:00 10° WNW 20:10:07 34° N 20:13:12 10° ENE visible
27 Jul -3.8 21:43:44 10° WNW 21:47:04 81° NNE 21:47:04 81° NNE visible
28 Jul -3.3 20:54:21 10° WNW 20:57:39 57° NNE 20:59:14 27° E visible
28 Jul -1.3 22:31:14 10° W 22:32:03 15° W 22:32:03 15° W visible
